Location: Larkspur
(54.4391°N, 113.7691°W)
Time: 01:00:01
(UTC+00:00)

YUBILEINY - Pass Details

Date: 05 December 2023
Orbit: 1479 x 1508 km, 82.5° (Epoch: 03 March)

Event Time Altitude Azimuth Distance (km) Brightness Sun altitude
Rises 00:04:43 0° 334° (NNW) 4,641 ? -7.1°
Reaches altitude 10° 00:10:19 10° 3° (N) 3,651 ? -7.8°
Maximum altitude 00:13:40 12° 26° (NNE) 3,456 ? -8.2°
Drops below altitude 10° 00:17:00 10° 49° (NE) 3,640 ? -8.7°
Enters shadow 00:17:32 - 52° (NE) 3,703 ? -8.7°
